sat.trackr.live / text

‹ back to catalog

HELLAS-SAT 4 & SGS-1

NORAD 44034 · 2019-007A

PAYLOAD ACTIVE UNKNOWN

§ Identity

Operator
Country
GRSA
Launch date
2019-02-05
Launch site
FRGUI
Launch vehicle
Mass (kg)
RCS (m²)

Purposes: comms

External: N2YO · Heavens-Above · Gunter

§ Orbital elements

Epoch: 2026-05-25T03:55:46.193376Z

Period
1,436.11 min
Inclination
0.0655°
Eccentricity
0.0004408
Mean motion
1.00270755 rev/d
Perigee alt
35,768.3 km
Apogee alt
35,805.5 km
Semi-major
42,165.0 km
B*
0.0000e+0
RAAN
124.4274°
Arg perigee
10.7828°
Mean anomaly
205.5059°
Rev number
2,713

§ Raw data

HELLAS-SAT 4 & SGS-11 44034U 19007A   26145.16372909  .00000150  00000+0  00000+0 0  99912 44034   0.0655 124.4274 0004408  10.7828 205.5059  1.00270755 27135

JSON: /api/v1/satellites/44034 · /tle

For live sub-satellite position, see the globe view (requires WebGL).

§ Visibility from observer

Set your observer location to see the next 7 days of passes ≥ 10°. The values pass through the URL so the page stays shareable.

No JS? Fill the form by hand. The geolocation button needs JavaScript.